AirNav   ProFlight Series 2 Aviation Headset
 
 1024 users online  

4PA9 Macungie Mack Heliport
Macungie, Pennsylvania, USA

GOING TO MACUNGIE?


FAA INFORMATION EFFECTIVE 18 JUNE 2020

Location

FAA Identifier: 4PA9
Lat/Long: 40-30-00.3490N 075-33-58.6700W
40-30.005817N 075-33.977833W
40.5000969,-75.5662972
(estimated)
Elevation: 400 ft. / 122 m (estimated)
Variation: 11W (1985)
From city: 1 mile W of MACUNGIE, PA
Time zone: UTC -4 (UTC -5 during Standard Time)
Zip code: 18062

Heliport Operations

Heliport use: Private use. Permission required prior to landing
Activation date: 12/1975
Control tower: no
ARTCC: NEW YORK CENTER
FSS: WILLIAMSPORT FLIGHT SERVICE STATION
Attendance: CONTINUOUS
Wind indicator: yes
Segmented circle: no

Heliport Communications

WX AWOS-3 at XLL (6 nm NE): 127.875 (610-231-3111)
WX AWOS-3 at UKT (9 nm SE): 119.475 (215-538-7610)
WX ASOS at ABE (11 nm NE): 126.975 (610-266-3579)
WX AWOS-3 at CKZ (14 nm SE): 126.325 (215-257-7291)
WX ASOS at PTW (16 nm S): 119.425 (610-495-0823)
WX ASOS at RDG (20 nm W): 127.1 (610-372-9863)

Nearby radio navigation aids

VOR radial/distance  VOR name  Freq  Var
ETXr141/7.2EAST TEXAS VOR/DME110.2009W
FJCr210/14.5ALLENTOWN VORTAC117.5010W
PTWr008/16.7POTTSTOWN VORTAC116.5009W
ARDr306/33.6YARDLEY VOR/DME108.2010W
MXEr017/35.2MODENA VORTAC113.2009W
SBJr272/37.9SOLBERG VOR/DME112.9010W
BWZr253/38.3BROADWAY VOR/DME114.2011W

 
NDB name  Hdg/Dist  Freq  Var  ID
AMBLER342/25.927512WING .. -. --.

Heliport Services

Runway Information

Helipad H1

Dimensions: 72 x 72 ft. / 22 x 22 m
Surface: turf, in fair condition
Latitude: 40-30.005817N
Longitude: 075-33.977833W
Elevation: 400.0 ft.
Traffic pattern: leftleft
Markings: none, in fair condition

Heliport Ownership and Management from official FAA records

Ownership: Privately-owned
Owner: MACK TRUCKS INC.
MACK BLVD
ALLENTOWN, PA 18105
Phone 215-439-3761
Manager: WILLIAM J. GMITTER
MACK BLVD
ALLENTOWN, PA 18105
Phone 215-439-2499

Additional Remarks

FOR CD CTC ALLENTOWN APCH AT 800-728-6322.

Instrument Procedures

There are no published instrument procedures at 4PA9.

Some nearby airports with instrument procedures:

KXLL - Allentown Queen City Municipal Airport (6 nm NE)
KUKT - Quakertown Airport (9 nm SE)
KABE - Lehigh Valley International Airport (11 nm NE)
KCKZ - Pennridge Airport (14 nm SE)
N47 - Pottstown Municipal Airport (15 nm S)
KPTW - Heritage Field Airport (16 nm S)
N10 - Perkiomen Valley Airport (19 nm S)
KRDG - Reading Regional Airport/Carl A Spaatz Field (20 nm W)
 
Loc | Ops | Rwys | IFR | FBO | Links
Com | Nav | Svcs | Stats | Notes
Area around 4PA9 (Macungie Mack Heliport)
 
Road maps at: MapQuest Bing Google
 
Aerial photo
No photo
 
Sectional chart

 
Airport distance calculator
Flying to Macungie Mack Heliport? Find the distance to fly.

From to 4PA9

Sunrise and sunset
Times for 06-Jul-2020
 Local
(UTC-4)
 Zulu
(UTC)
Morning civil twilight05:0709:07
Sunrise05:4009:40
Sunset20:3400:34
Evening civil twilight21:0701:07

Current date and time
Zulu (UTC)  07-Jul-2020 00:02:15
Local (UTC-4)  06-Jul-2020 20:02:15
 
METAR
KXLL 
6nm NE 
062355Z AUTO 10004KT 10SM -RA SCT040 BKN055 OVC070 22/20 A3008 RMK AO2 LTG DSNT SE
KUKT 
9nm SE 
062355Z AUTO 16005KT 5SM BR SCT002 SCT020 BKN037 21/21 A3008 RMK A01 P0005
KABE 
10nm NE 
062351Z 12006KT 10SM VCTS -RA FEW055 FEW075 SCT110 22/19 A3007 RMK AO2 SLP181 P0001 60012 T02220189 10350 20211 53021
KCKZ 
14nm SE 
062355Z AUTO 00000KT 7SM -RA SCT038 BKN050 OVC120 20/20 A3010 RMK AO2 LTG DSNT N AND S AND SW P0003
KPTW 
16nm S 
062354Z AUTO 00000KT 6SM -RA BR BKN110 21/19 A3010 RMK AO2 LTG DSNT SW AND W RAB13 SLP189 P0002 60069 T02060189 10256 20200 53023
KRDG 
20nm SW 
062354Z AUTO VCTS A3004 RMK AO2 LTG DSNT S-W SLPNO PWINO $
TAF
KABE 
10nm NE 
061933Z 0620/0718 15012G22KT P6SM VCTS SCT040CB BKN090 TEMPO 0620/0623 2SM +TSRA BKN025CB FM070100 VRB03KT P6SM BKN050 BKN250 FM070700 VRB02KT P6SM OVC015
KRDG 
20nm SW 
062122Z 0621/0718 13012KT P6SM VCTS SCT040CB BKN080 TEMPO 0621/0623 2SM TSRA BKN025CB OVC040 FM070200 VRB03KT P6SM BKN040 BKN100 FM070700 VRB02KT P6SM OVC020
NOTAMs
Click for the latest NOTAMs
NOTAMs are issued by the DoD/FAA and will open in a separate window not controlled by AirNav.

 

 
 

Would you like to see your business listed on this page?

 If your business provides an interesting product or service to pilots, flight crews, aircraft, or users of the Macungie Mack Heliport, you should consider listing it here.  To start the listing process, click on the button below
 
Add a business
 

Other Pages about Macungie Mack Heliport

Update a link
 
Copyright © AirNav, LLC. All rights reserved. Privacy Policy  Contact